Location: Muenchen
(48.1800°N, 11.5800°E)
Time: 22:25:48
(UTC+02:00)

Sich 1 Rocket - Visible Passes

Search period start: 30 March 2017 00:00
Search period end: 09 April 2017 00:00
Orbit: 616 x 654 km, 82.5° (Epoch: 29 March)

Date Brightness Start Highest point End Pass type
(mag) Time Alt. Az. Time Alt. Az. Time Alt. Az.
30 Mar 6.5 01:04:32 10° N 01:05:10 14° N 01:05:10 14° N visible
31 Mar 6.5 01:26:51 10° NNW 01:27:24 13° NNW 01:27:24 13° NNW visible
01 Apr 6.3 00:11:25 10° NNE 00:12:09 14° NNE 00:12:09 14° NNE visible
01 Apr 6.6 01:49:26 10° NNW 01:49:38 11° NNW 01:49:38 11° NNW visible
02 Apr 6.2 00:33:21 10° N 00:34:23 17° N 00:34:23 17° N visible
03 Apr 6.2 00:55:35 10° NNW 00:56:38 17° NNW 00:56:38 17° NNW visible
03 Apr 6.1 23:40:21 10° NNE 23:41:24 15° NNE 23:41:24 15° NNE visible
04 Apr 6.3 01:18:05 10° NNW 01:18:53 15° NNW 01:18:53 15° NNW visible
05 Apr 5.9 00:02:11 10° N 00:03:40 20° NNE 00:03:40 20° NNE visible
05 Apr 6.5 01:40:59 10° NW 01:41:09 11° NW 01:41:09 11° NW visible
06 Apr 5.9 00:24:20 10° N 00:25:56 22° N 00:25:56 22° N visible
06 Apr 5.9 23:09:20 10° NNE 23:10:44 15° NE 23:10:44 15° NE visible
07 Apr 6.0 00:46:46 10° NNW 00:48:13 20° NNW 00:48:13 20° NNW visible
07 Apr 5.5 23:31:02 10° N 23:33:01 23° NNE 23:33:01 23° NNE visible
08 Apr 6.2 01:09:31 10° NNW 01:10:30 15° NW 01:10:30 15° NW visible
